Date String (YYYY-MM-DD hh:mm:ss) UTC,Instrument flags,Ambient pressure (hPa),Sample flow (lpm),Bypass flow (lpm),Sample temperature (°C),Ambient temperature (°C),ASC tube jacket temperature (°C),LED temperature (°C),Box temperature (°C),Sample RH (%),Span deviation,Mass concentration (μg/m³),Mass concentration (μg/m³),Mass concentration (μg/m³)
DateTimeUTC,F1_M11,P_M11,Q1_M11,Q2_M11,T1_M11,T2_M11,T3_M11,T4_M11,T5_M11,U1_M11,ZSPAN_M11,X0_M11,X2_M11,X1_M11
2023-05-06 13:00:00,,0826.4,5.00,0.00,27.2,25.6,00.0,35.5,28.6,14.4,0000.0,0011.96,0003.92,0002.51
2023-05-06 13:01:00,,0826.4,5.00,0.00,27.1,25.5,00.0,35.5,28.7,14.5,0000.0,0011.67,0003.93,0002.50
2023-05-06 13:02:00,,0826.4,5.00,0.00,27.1,25.5,00.0,35.5,28.7,15.2,0000.0,0011.27,0003.89,0002.48
2023-05-06 13:03:00,,0826.4,5.00,0.00,27.1,25.4,00.0,35.5,28.7,15.7,0000.0,0011.24,0003.93,0002.53
2023-05-06 13:04:00,,0826.4,5.00,0.00,27.1,25.4,00.0,35.5,28.6,15.5,0000.0,0011.22,0004.01,0002.56
2023-05-06 13:05:00,,0826.4,5.00,0.00,27.1,25.4,00.0,35.5,28.6,15.4,0000.0,0010.03,0004.04,0002.59
2023-05-06 13:06:00,,0826.4,4.99,0.00,27.1,25.4,00.0,35.5,28.6,14.9,0000.0,0009.94,0004.04,0002.61
2023-05-06 13:07:00,,0826.4,5.00,0.00,27.1,25.4,00.0,35.5,28.5,14.8,0000.0,0010.16,0004.03,0002.62
2023-05-06 13:08:00,,0826.4,5.00,0.00,27.1,25.4,00.0,35.4,28.5,15.0,0000.0,0010.32,0004.03,0002.65
2023-05-06 13:09:00,,0826.4,5.00,0.00,27.1,25.4,00.0,35.5,28.5,15.5,0000.0,0010.38,0004.01,0002.67
2023-05-06 13:10:00,,0826.4,5.01,0.00,27.1,25.5,00.0,35.4,28.5,15.6,0000.0,0010.23,0004.07,0002.69
2023-05-06 13:11:00,,0826.4,4.99,0.00,27.1,25.5,00.0,35.4,28.6,15.4,0000.0,0010.86,0004.10,0002.69
2023-05-06 13:12:00,,0826.4,4.99,0.00,27.1,25.5,00.0,35.4,28.5,15.3,0000.0,0010.71,0004.11,0002.68
2023-05-06 13:13:00,,0826.4,5.00,0.00,27.1,25.5,00.0,35.4,28.5,13.9,0000.0,0010.74,0004.12,0002.67
2023-05-06 13:14:00,,0826.4,5.01,0.00,27.1,25.5,00.0,35.4,28.5,14.0,0000.0,0010.70,0004.10,0002.62
2023-05-06 13:15:00,,0826.5,5.00,0.00,27.1,25.5,00.0,35.4,28.6,14.1,0000.0,0011.08,0004.03,0002.57
2023-05-06 13:16:00,,0826.4,5.00,0.00,27.1,25.5,00.0,35.4,28.6,13.9,0000.0,0010.92,0003.95,0002.52
2023-05-06 13:17:00,,0826.5,5.00,0.00,27.1,25.5,00.0,35.4,28.5,14.1,0000.0,0010.85,0003.93,0002.50
2023-05-06 13:18:00,,0826.6,4.99,0.00,27.1,25.5,00.0,35.4,28.6,14.3,0000.0,0010.90,0003.97,0002.51
2023-05-06 13:19:00,,0826.6,5.01,0.00,27.1,25.5,00.0,35.5,28.6,14.0,0000.0,0010.76,0003.94,0002.51
2023-05-06 13:20:00,,0826.6,5.01,0.00,27.1,25.5,00.0,35.5,28.6,14.1,0000.0,0010.62,0003.94,0002.48
2023-05-06 13:21:00,,0826.6,5.00,0.00,27.1,25.5,00.0,35.4,28.5,14.0,0000.0,0010.47,0003.86,0002.46
2023-05-06 13:22:00,,0826.6,5.00,0.00,27.1,25.5,00.0,35.4,28.5,14.3,0000.0,0009.90,0003.83,0002.44
2023-05-06 13:23:00,,0826.6,4.99,0.00,27.1,25.5,00.0,35.4,28.5,14.7,0000.0,0009.63,0003.79,0002.42
2023-05-06 13:24:00,,0826.6,4.99,0.00,27.1,25.5,00.0,35.4,28.5,15.1,0000.0,0009.54,0003.76,0002.42
2023-05-06 13:25:00,,0826.6,5.00,0.00,27.1,25.5,00.0,35.4,28.6,14.8,0000.0,0009.45,0003.71,0002.42
2023-05-06 13:26:00,,0826.6,5.01,0.00,27.1,25.5,00.0,35.4,28.6,14.1,0000.0,0009.09,0003.72,0002.45
2023-05-06 13:27:00,,0826.6,5.01,0.00,27.1,25.5,00.0,35.5,28.6,14.6,0000.0,0009.08,0003.72,0002.46
2023-05-06 13:28:00,,0826.6,5.00,0.00,27.1,25.5,00.0,35.5,28.6,15.0,0000.0,0009.00,0003.70,0002.47
2023-05-06 13:29:00,,0826.7,4.99,0.00,27.1,25.5,00.0,35.5,28.6,13.7,0000.0,0008.55,0003.65,0002.44
2023-05-06 13:30:00,,0826.7,5.01,0.00,27.1,25.5,00.0,35.4,28.6,14.7,0000.0,0008.51,0003.63,0002.41
2023-05-06 13:31:00,,0826.7,5.01,0.00,27.1,25.5,00.0,35.4,28.6,14.8,0000.0,0008.93,0003.64,0002.42
2023-05-06 13:32:00,,0826.8,4.99,0.00,27.1,25.5,00.0,35.5,28.6,14.6,0000.0,0008.99,0003.66,0002.42
2023-05-06 13:33:00,,0826.8,4.98,0.00,27.1,25.5,00.0,35.5,28.6,14.0,0000.0,0009.11,0003.66,0002.39
2023-05-06 13:34:00,,0826.8,5.00,0.00,27.1,25.5,00.0,35.5,28.6,13.7,0000.0,0009.06,0003.62,0002.35
2023-05-06 13:35:00,,0826.8,5.01,0.00,27.1,25.5,00.0,35.5,28.6,13.3,0000.0,0009.01,0003.60,0002.30
2023-05-06 13:36:00,,0826.8,5.00,0.00,27.1,25.5,00.0,35.5,28.5,13.3,0000.0,0009.11,0003.61,0002.26
2023-05-06 13:37:00,,0826.8,5.00,0.00,27.1,25.4,00.0,35.5,28.5,13.2,0000.0,0009.55,0003.58,0002.21
2023-05-06 13:38:00,,0826.9,5.00,0.00,27.1,25.4,00.0,35.5,28.5,13.3,0000.0,0009.46,0003.58,0002.17
2023-05-06 13:39:00,,0826.9,5.00,0.00,27.1,25.3,00.0,35.4,28.5,13.2,0000.0,0009.45,0003.56,0002.13
2023-05-06 13:40:00,,0826.9,5.00,0.00,27.1,25.3,00.0,35.4,28.5,13.2,0000.0,0009.75,0003.53,0002.10
2023-05-06 13:41:00,,0826.9,4.99,0.00,27.1,25.3,00.0,35.4,28.5,13.2,0000.0,0009.62,0003.49,0002.09
2023-05-06 13:42:00,,0826.9,4.99,0.00,27.1,25.3,00.0,35.4,28.6,13.5,0000.0,0009.05,0003.45,0002.05
2023-05-06 13:43:00,,0826.9,4.99,0.00,27.1,25.3,00.0,35.4,28.6,13.8,0000.0,0009.22,0003.46,0002.04
2023-05-06 13:44:00,,0826.9,5.00,0.00,27.1,25.3,00.0,35.4,28.5,14.0,0000.0,0009.12,0003.44,0002.04
2023-05-06 13:45:00,,0826.9,5.00,0.00,27.1,25.3,00.0,35.4,28.5,13.5,0000.0,0010.86,0003.62,0002.06
2023-05-06 13:46:00,,0826.9,5.00,0.00,27.0,25.2,00.0,35.4,28.5,13.4,0000.0,0014.28,0004.06,0002.12
2023-05-06 13:47:00,,0826.8,5.00,0.00,27.0,25.1,00.0,35.4,28.5,13.4,0000.0,0014.39,0004.06,0002.09
2023-05-06 13:48:00,,0826.8,5.00,0.00,27.0,25.1,00.0,35.4,28.4,13.4,0000.0,0014.04,0004.03,0002.04
2023-05-06 13:49:00,,0826.8,5.00,0.00,27.0,25.0,00.0,35.4,28.5,13.8,0000.0,0013.84,0003.95,0001.97
2023-05-06 13:50:00,,0826.8,5.00,0.00,27.0,25.0,00.0,35.4,28.4,14.0,0000.0,0013.71,0003.87,0001.89
2023-05-06 13:51:00,,0826.7,5.00,0.00,26.9,24.9,00.0,35.3,28.4,14.1,0000.0,0013.18,0003.80,0001.81
2023-05-06 13:52:00,,0826.7,5.01,0.00,26.9,24.9,00.0,35.3,28.4,14.4,0000.0,0013.14,0003.75,0001.71
2023-05-06 13:53:00,,0826.8,5.01,0.00,26.9,24.8,00.0,35.3,28.3,14.5,0000.0,0013.04,0003.67,0001.61
2023-05-06 13:54:00,,0826.8,4.99,0.00,26.9,24.8,00.0,35.3,28.3,14.7,0000.0,0012.19,0003.53,0001.49
2023-05-06 13:55:00,,0826.7,4.99,0.00,26.8,24.7,00.0,35.3,28.3,14.9,0000.0,0012.14,0003.43,0001.37
2023-05-06 13:56:00,,0826.7,5.02,0.00,26.8,24.7,00.0,35.3,28.3,14.9,0000.0,0010.92,0003.19,0001.25
2023-05-06 13:57:00,,0826.7,5.01,0.00,26.8,24.7,00.0,35.3,28.3,14.8,0000.0,0005.78,0002.11,0001.06
2023-05-06 13:58:00,,0826.6,4.99,0.00,26.8,24.7,00.0,35.2,28.2,14.9,0000.0,0005.06,0001.83,0000.96
2023-05-06 13:59:00,,0826.6,4.99,0.00,26.7,24.7,00.0,35.2,28.2,14.9,0000.0,0004.15,0001.68,0000.91
